Regional Weather Roundup
Issued by NWS Albany, NY

Home | Current Version | Previous Version | Text Only | Print | Product List | Glossary On
Versions: 1 2 3 4 5 6 7 8 9 10 11 12 13 14 15 16 17 18 19 20 21 22 23 24 25 26 27 28 29 30 31 32 33 34
000
ASUS41 KALY 210910
RWRALY

NEW YORK STATE HOURLY WEATHER ROUNDUP
NATIONAL WEATHER SERVICE ALBANY NY
500 AM EDT TUE OCT 21 2014

NOTE: "FAIR" INDICATES FEW OR NO CLOUDS BELOW 12,000 FEET WITH NO
SIGNIFICANT WEATHER AND/OR NO OBSTRUCTIONS TO VISIBILITY.

NYZ032-033-038>043-046>054-057>066-NYZ062>081-211000-
EAST


CITY           SKY/WX    TMP DP  RH WIND       PRES   REMARKS
ALBANY         LGT RAIN  48  44  86 CALM      29.90F
GLENS FALLS    CLOUDY    45  42  89 CALM      29.92R
POUGHKEEPSIE   CLOUDY    49  44  83 CALM      29.91S
NEWBURGH       LGT RAIN  50  46  87 CALM      29.92R
MONTGOMERY     LGT RAIN  46  43  89 CALM      29.90S
WHITE PLAINS   MOCLDY    48  44  86 CALM      29.90S
ISLIP          CLOUDY    49  46  90 NE3       29.89F
NEW YORK CITY  CLOUDY    55  45  68 S5        29.90F
CENTRAL PARK   MOCLDY    57  43  59 CALM      29.92F
$$

NYZ005>009-017-018-044>046-055-056-211000-
CENTRAL


CITY           SKY/WX    TMP DP  RH WIND       PRES   REMARKS
FULTON         CLOUDY    48  45  89 VRB5      29.82F
SYRACUSE       DRIZZLE   49  46  90 E7        29.83F
ROME           CLOUDY    46  44  93 E5        29.87F
ELMIRA         CLOUDY    47  46  97 CALM      29.82S
BINGHAMTON     CLOUDY    47  42  83 SE7       29.83F
MONTICELLO     CLOUDY    45  43  93 SE3       29.90S
$$

NYZ026>034-041>043-211000-
NORTH


CITY           SKY/WX    TMP DP  RH WIND       PRES   REMARKS
WATERTOWN      CLOUDY    51  43  74 SE5       29.83S
FORT DRUM      NOT AVBL
MASSENA        LGT RAIN  44  42  93 E8        29.91R
SARANAC LAKE   LGT RAIN  40  38  93 CALM      29.87S
PLATTSBURGH    LGT RAIN  43  42  97 CALM      29.93R
$$

NYZ001>004-010>016-019>021-211000-
WEST


CITY           SKY/WX    TMP DP  RH WIND       PRES   REMARKS
NIAGARA FALLS  CLOUDY    50  48  93 NW7       29.77S FOG
BUFFALO        CLOUDY    51  49  92 NW7       29.77S FOG
DUNKIRK        CLOUDY    52  49  89 NW8       29.79S
JAMESTOWN      CLOUDY    48  46  93 NW7       29.80R
WELLSVILLE     LGT RAIN  47  44  90 SW5       29.80F
ROCHESTER      RAIN      50  48  93 S3        29.78F
PENN YAN       LGT RAIN  48  45  89 S5        29.81S
$$

             KEY
       WCI = WIND CHILL INDEX
       VSB = VISIBILITY
       HX  = HEAT INDEX
$$



USA.gov is the U.S. government's official web portal to all federal, state and local government web resources and services.